Year,Month,Day,Hour,Minute,Value (Times are PST for temperature in C)
2014,08,13,00,00,19.90
2014,08,13,00,01,19.90
2014,08,13,00,02,19.90
2014,08,13,00,03,19.90
2014,08,13,00,04,19.90
2014,08,13,00,05,19.90
2014,08,13,00,06,19.90
2014,08,13,00,07,20.00
2014,08,13,00,08,20.00
2014,08,13,00,09,20.00
2014,08,13,00,10,20.00
2014,08,13,00,11,20.10
2014,08,13,00,12,20.10
2014,08,13,00,13,20.10
2014,08,13,00,14,20.20
2014,08,13,00,15,20.20
2014,08,13,00,16,20.20
2014,08,13,00,17,20.30
2014,08,13,00,18,20.30
2014,08,13,00,19,20.30
2014,08,13,00,20,20.30
2014,08,13,00,21,20.30
2014,08,13,00,22,20.30
2014,08,13,00,23,20.20
2014,08,13,00,24,20.20
2014,08,13,00,25,20.20
2014,08,13,00,26,20.20
2014,08,13,00,27,20.20
2014,08,13,00,28,20.10
2014,08,13,00,29,20.10
2014,08,13,00,30,20.00
2014,08,13,00,31,20.00
2014,08,13,00,32,19.90
2014,08,13,00,33,19.90
2014,08,13,00,34,19.90
2014,08,13,00,35,19.80
2014,08,13,00,36,19.80
2014,08,13,00,37,19.80
2014,08,13,00,38,19.80
2014,08,13,00,39,19.70
2014,08,13,00,40,19.70
2014,08,13,00,41,19.70
2014,08,13,00,42,19.70
2014,08,13,00,43,19.60
2014,08,13,00,44,19.60
2014,08,13,00,45,19.60
2014,08,13,00,46,19.50
2014,08,13,00,47,19.50
2014,08,13,00,48,19.50
2014,08,13,00,49,19.40
2014,08,13,00,50,19.30
2014,08,13,00,51,19.30
2014,08,13,00,52,19.20
2014,08,13,00,53,19.20
2014,08,13,00,54,19.20
2014,08,13,00,55,19.10
2014,08,13,00,56,19.10
2014,08,13,00,57,19.10
2014,08,13,00,58,19.10
2014,08,13,00,59,19.10
2014,08,13,01,00,19.10
2014,08,13,01,01,19.10
2014,08,13,01,02,19.10
2014,08,13,01,03,19.20
2014,08,13,01,04,19.20
2014,08,13,01,05,19.10
2014,08,13,01,06,19.10
2014,08,13,01,07,19.10
2014,08,13,01,08,19.10
2014,08,13,01,09,19.10
2014,08,13,01,10,19.10
2014,08,13,01,11,19.10
2014,08,13,01,12,19.10
2014,08,13,01,13,19.10
2014,08,13,01,14,19.00
2014,08,13,01,15,19.00
2014,08,13,01,16,18.90
2014,08,13,01,17,18.90
2014,08,13,01,18,18.80
2014,08,13,01,19,18.70
2014,08,13,01,20,18.70
2014,08,13,01,21,18.60
2014,08,13,01,22,18.50
2014,08,13,01,23,18.40
2014,08,13,01,24,18.40
2014,08,13,01,25,18.30
2014,08,13,01,26,18.20
2014,08,13,01,27,18.10
2014,08,13,01,28,18.00
2014,08,13,01,29,18.00
2014,08,13,01,30,17.90
2014,08,13,01,31,17.90
2014,08,13,01,32,17.90
2014,08,13,01,33,17.90
2014,08,13,01,34,17.90
2014,08,13,01,35,18.00
2014,08,13,01,36,18.00
2014,08,13,01,37,18.00
2014,08,13,01,38,18.00
2014,08,13,01,39,18.00
2014,08,13,01,40,18.10
2014,08,13,01,41,18.10
2014,08,13,01,42,18.10
2014,08,13,01,43,18.10
2014,08,13,01,44,18.10
2014,08,13,01,45,18.10
2014,08,13,01,46,18.10
2014,08,13,01,47,18.10
2014,08,13,01,48,18.20
2014,08,13,01,49,18.20
2014,08,13,01,50,18.20
2014,08,13,01,51,18.20
2014,08,13,01,52,18.20
2014,08,13,01,53,18.30
2014,08,13,01,54,18.30
2014,08,13,01,55,18.40
2014,08,13,01,56,18.40
2014,08,13,01,57,18.50
2014,08,13,01,58,18.50
2014,08,13,01,59,18.60
2014,08,13,02,00,18.60
2014,08,13,02,01,18.70
2014,08,13,02,02,18.70
2014,08,13,02,03,18.70
2014,08,13,02,04,18.70
2014,08,13,02,05,18.80
2014,08,13,02,06,18.80
2014,08,13,02,07,18.80
2014,08,13,02,08,18.80
2014,08,13,02,09,18.80
2014,08,13,02,10,18.80
2014,08,13,02,11,18.80
2014,08,13,02,12,18.80
2014,08,13,02,13,18.80
2014,08,13,02,14,18.80
2014,08,13,02,15,18.80
2014,08,13,02,16,18.90
2014,08,13,02,17,18.90
2014,08,13,02,18,18.90
2014,08,13,02,19,18.90
2014,08,13,02,20,18.90
2014,08,13,02,21,18.90
2014,08,13,02,22,18.90
2014,08,13,02,23,18.90
2014,08,13,02,24,18.90
2014,08,13,02,25,18.90
2014,08,13,02,26,18.90
2014,08,13,02,27,19.00
2014,08,13,02,28,19.00
2014,08,13,02,29,19.10
2014,08,13,02,30,19.10
2014,08,13,02,31,19.10
2014,08,13,02,32,19.20
2014,08,13,02,33,19.20
2014,08,13,02,34,19.20
2014,08,13,02,35,19.30
2014,08,13,02,36,19.30
2014,08,13,02,37,19.30
2014,08,13,02,38,19.30
2014,08,13,02,39,19.30
2014,08,13,02,40,19.30
2014,08,13,02,41,19.30
2014,08,13,02,42,19.30
2014,08,13,02,43,19.30
2014,08,13,02,44,19.30
2014,08,13,02,45,19.30
2014,08,13,02,46,19.30
2014,08,13,02,47,19.30
2014,08,13,02,48,19.30
2014,08,13,02,49,19.30
2014,08,13,02,50,19.30
2014,08,13,02,51,19.30
2014,08,13,02,52,19.30
2014,08,13,02,53,19.30
2014,08,13,02,54,19.30
2014,08,13,02,55,19.30
2014,08,13,02,56,19.30
2014,08,13,02,57,19.30
2014,08,13,02,58,19.30
2014,08,13,02,59,19.40
2014,08,13,03,00,19.40
2014,08,13,03,01,19.40
2014,08,13,03,02,19.30
2014,08,13,03,03,19.30
2014,08,13,03,04,19.30
2014,08,13,03,05,19.30
2014,08,13,03,06,19.30
2014,08,13,03,07,19.30
2014,08,13,03,08,19.30
2014,08,13,03,09,19.30
2014,08,13,03,10,19.20
2014,08,13,03,11,19.20
2014,08,13,03,12,19.20
2014,08,13,03,13,19.20
2014,08,13,03,14,19.20
2014,08,13,03,15,19.20
2014,08,13,03,16,19.20
2014,08,13,03,17,19.20
2014,08,13,03,18,19.20
2014,08,13,03,19,19.20
2014,08,13,03,20,19.10
2014,08,13,03,21,19.10
2014,08,13,03,22,19.10
2014,08,13,03,23,19.10
2014,08,13,03,24,19.10
2014,08,13,03,25,19.10
2014,08,13,03,26,19.10
2014,08,13,03,27,19.10
2014,08,13,03,28,19.20
2014,08,13,03,29,19.10
2014,08,13,03,30,19.10
2014,08,13,03,31,19.20
2014,08,13,03,32,19.20
2014,08,13,03,33,19.20
2014,08,13,03,34,19.10
2014,08,13,03,35,19.10
2014,08,13,03,36,19.10
2014,08,13,03,37,19.10
2014,08,13,03,38,19.20
2014,08,13,03,39,19.20
2014,08,13,03,40,19.10
2014,08,13,03,41,19.10
2014,08,13,03,42,19.10
2014,08,13,03,43,19.10
2014,08,13,03,44,19.10
2014,08,13,03,45,19.10
2014,08,13,03,46,19.10
2014,08,13,03,47,19.10
2014,08,13,03,48,19.10
2014,08,13,03,49,19.10
2014,08,13,03,50,19.10
2014,08,13,03,51,19.10
2014,08,13,03,52,19.10
2014,08,13,03,53,19.10
2014,08,13,03,54,19.10
2014,08,13,03,55,19.10
2014,08,13,03,56,19.00
2014,08,13,03,57,19.00
2014,08,13,03,58,19.00
2014,08,13,03,59,19.00
2014,08,13,04,00,19.00
2014,08,13,04,01,18.90
2014,08,13,04,02,18.90
2014,08,13,04,03,18.90
2014,08,13,04,04,18.90
2014,08,13,04,05,18.80
2014,08,13,04,06,18.80
2014,08,13,04,07,18.80
2014,08,13,04,08,18.80
2014,08,13,04,09,18.80
2014,08,13,04,10,18.80
2014,08,13,04,11,18.80
2014,08,13,04,12,18.80
2014,08,13,04,13,18.80
2014,08,13,04,14,18.70
2014,08,13,04,15,18.70
2014,08,13,04,16,18.70
2014,08,13,04,17,18.70
2014,08,13,04,18,18.60
2014,08,13,04,19,18.60
2014,08,13,04,20,18.60
2014,08,13,04,21,18.60
2014,08,13,04,22,18.60
2014,08,13,04,23,18.50
2014,08,13,04,24,18.50
2014,08,13,04,25,18.50
2014,08,13,04,26,18.50
2014,08,13,04,27,18.50
2014,08,13,04,28,18.40
2014,08,13,04,29,18.40
2014,08,13,04,30,18.40
2014,08,13,04,31,18.40
2014,08,13,04,32,18.30
2014,08,13,04,33,18.30
2014,08,13,04,34,18.30
2014,08,13,04,35,18.30
2014,08,13,04,36,18.30
2014,08,13,04,37,18.30
2014,08,13,04,38,18.30
2014,08,13,04,39,18.20
2014,08,13,04,40,18.20
2014,08,13,04,41,18.20
2014,08,13,04,42,18.20
2014,08,13,04,43,18.20
2014,08,13,04,44,18.20
2014,08,13,04,45,18.20
2014,08,13,04,46,18.20
2014,08,13,04,47,18.10
2014,08,13,04,48,18.10
2014,08,13,04,49,18.10
2014,08,13,04,50,18.10
2014,08,13,04,51,18.10
2014,08,13,04,52,18.10
2014,08,13,04,53,18.00
2014,08,13,04,54,18.00
2014,08,13,04,55,18.00
2014,08,13,04,56,18.00
2014,08,13,04,57,18.00
2014,08,13,04,58,17.90
2014,08,13,04,59,17.90
2014,08,13,05,00,17.90
2014,08,13,05,01,17.90
2014,08,13,05,02,17.90
2014,08,13,05,03,17.90
2014,08,13,05,04,17.90
2014,08,13,05,05,17.90
2014,08,13,05,06,17.90
2014,08,13,05,07,17.90
2014,08,13,05,08,17.90
2014,08,13,05,09,17.90
2014,08,13,05,10,17.90
2014,08,13,05,11,17.90
2014,08,13,05,12,17.90
2014,08,13,05,13,17.90
2014,08,13,05,14,17.80
2014,08,13,05,15,17.80
2014,08,13,05,16,17.80
2014,08,13,05,17,17.70
2014,08,13,05,18,17.70
2014,08,13,05,19,17.60
2014,08,13,05,20,17.60
2014,08,13,05,21,17.60
2014,08,13,05,22,17.50
2014,08,13,05,23,17.50
2014,08,13,05,24,17.40
2014,08,13,05,25,17.40
2014,08,13,05,26,17.40
2014,08,13,05,27,17.40
2014,08,13,05,28,17.40
2014,08,13,05,29,17.40
2014,08,13,05,30,17.30
2014,08,13,05,31,17.30
2014,08,13,05,32,17.30
2014,08,13,05,33,17.30
2014,08,13,05,34,17.20
2014,08,13,05,35,17.20
2014,08,13,05,36,17.20
2014,08,13,05,37,17.20
2014,08,13,05,38,17.10
2014,08,13,05,39,17.00
2014,08,13,05,40,16.90
2014,08,13,05,41,16.90
2014,08,13,05,42,16.90
2014,08,13,05,43,16.80
2014,08,13,05,44,16.80
2014,08,13,05,45,16.70
2014,08,13,05,46,16.70
2014,08,13,05,47,16.70
2014,08,13,05,48,16.70
2014,08,13,05,49,16.80
2014,08,13,05,50,16.80
2014,08,13,05,51,16.80
2014,08,13,05,52,16.90
2014,08,13,05,53,16.90
2014,08,13,05,54,16.90
2014,08,13,05,55,17.00
2014,08,13,05,56,17.00
2014,08,13,05,57,17.00
2014,08,13,05,58,17.00
2014,08,13,05,59,17.00
2014,08,13,06,00,17.00
2014,08,13,06,01,17.00
2014,08,13,06,02,17.00
2014,08,13,06,03,17.00
2014,08,13,06,04,17.00
2014,08,13,06,05,17.00
2014,08,13,06,06,17.00
2014,08,13,06,07,17.00
2014,08,13,06,08,17.00
2014,08,13,06,09,17.10
2014,08,13,06,10,17.10
2014,08,13,06,11,17.10
2014,08,13,06,12,17.10
2014,08,13,06,13,17.10
2014,08,13,06,14,17.10
2014,08,13,06,15,17.10
2014,08,13,06,16,17.10
2014,08,13,06,17,17.10
2014,08,13,06,18,17.10
2014,08,13,06,19,17.00
2014,08,13,06,20,16.90
2014,08,13,06,21,16.80
2014,08,13,06,22,16.80
2014,08,13,06,23,16.80
2014,08,13,06,24,16.80
2014,08,13,06,25,16.80
2014,08,13,06,26,16.70
2014,08,13,06,27,16.70
2014,08,13,06,28,16.70
2014,08,13,06,29,16.70
2014,08,13,06,30,16.60
2014,08,13,06,31,16.60
2014,08,13,06,32,16.60
2014,08,13,06,33,16.50
2014,08,13,06,34,16.50
2014,08,13,06,35,16.40
2014,08,13,06,36,16.40
2014,08,13,06,37,16.40
2014,08,13,06,38,16.30
2014,08,13,06,39,16.30
2014,08,13,06,40,16.30
2014,08,13,06,41,16.30
2014,08,13,06,42,16.30
2014,08,13,06,43,16.30
2014,08,13,06,44,16.30
2014,08,13,06,45,16.30
2014,08,13,06,46,16.30
2014,08,13,06,47,16.30
2014,08,13,06,48,16.30
2014,08,13,06,49,16.30
2014,08,13,06,50,16.30
2014,08,13,06,51,16.30
2014,08,13,06,52,16.30
2014,08,13,06,53,16.30
2014,08,13,06,54,16.30
2014,08,13,06,55,16.30
2014,08,13,06,56,16.30
2014,08,13,06,57,16.30
2014,08,13,06,58,16.30
2014,08,13,06,59,16.20
2014,08,13,07,00,16.20
2014,08,13,07,01,16.20
2014,08,13,07,02,16.20
2014,08,13,07,03,16.20
2014,08,13,07,04,16.20
2014,08,13,07,05,16.20
2014,08,13,07,06,16.20
2014,08,13,07,07,16.20
2014,08,13,07,08,16.20
2014,08,13,07,09,16.20
2014,08,13,07,10,16.10
2014,08,13,07,11,16.10
2014,08,13,07,12,16.10
2014,08,13,07,13,16.10
2014,08,13,07,14,16.00
2014,08,13,07,15,16.00
2014,08,13,07,16,16.00
2014,08,13,07,17,15.90
2014,08,13,07,18,15.90
2014,08,13,07,19,15.90
2014,08,13,07,20,15.90
2014,08,13,07,21,15.90
2014,08,13,07,22,15.90
2014,08,13,07,23,15.90
2014,08,13,07,24,15.90
2014,08,13,07,25,15.90
2014,08,13,07,26,15.90
2014,08,13,07,27,15.90
2014,08,13,07,28,15.80
2014,08,13,07,29,15.80
2014,08,13,07,30,15.80
2014,08,13,07,31,15.80
2014,08,13,07,32,15.80
2014,08,13,07,33,15.80
2014,08,13,07,34,15.80
2014,08,13,07,35,15.90
2014,08,13,07,36,15.90
2014,08,13,07,37,15.90
2014,08,13,07,38,16.00
2014,08,13,07,39,16.00
2014,08,13,07,40,16.00
2014,08,13,07,41,16.10
2014,08,13,07,42,16.10
2014,08,13,07,43,16.10
2014,08,13,07,44,16.10
2014,08,13,07,45,16.10
2014,08,13,07,46,16.10
2014,08,13,07,47,16.10
2014,08,13,07,48,16.10
2014,08,13,07,49,16.20
2014,08,13,07,50,16.20
2014,08,13,07,51,16.20
2014,08,13,07,52,16.20
2014,08,13,07,53,16.20
2014,08,13,07,54,16.20
2014,08,13,07,55,16.20
2014,08,13,07,56,16.20
2014,08,13,07,57,16.20
2014,08,13,07,58,16.20
2014,08,13,07,59,16.20
2014,08,13,08,00,16.20
2014,08,13,08,01,16.20
2014,08,13,08,02,16.10
2014,08,13,08,03,16.10
2014,08,13,08,04,16.10
2014,08,13,08,05,16.10
2014,08,13,08,06,16.10
2014,08,13,08,07,16.10
2014,08,13,08,08,16.10
2014,08,13,08,09,16.10
2014,08,13,08,10,16.10
2014,08,13,08,11,16.10
2014,08,13,08,12,16.20
2014,08,13,08,13,16.20
2014,08,13,08,14,16.20
2014,08,13,08,15,16.20
2014,08,13,08,16,16.20
2014,08,13,08,17,16.20
2014,08,13,08,18,16.20
2014,08,13,08,19,16.20
2014,08,13,08,20,16.20
2014,08,13,08,21,16.20
2014,08,13,08,22,16.20
2014,08,13,08,23,16.20
2014,08,13,08,24,16.20
2014,08,13,08,25,16.20
2014,08,13,08,26,16.20
2014,08,13,08,27,16.20
2014,08,13,08,28,16.20
2014,08,13,08,29,16.20
2014,08,13,08,30,16.20
2014,08,13,08,31,16.30
2014,08,13,08,32,16.30
2014,08,13,08,33,16.30
2014,08,13,08,34,16.30
2014,08,13,08,35,16.30
2014,08,13,08,36,16.30
2014,08,13,08,37,16.30
2014,08,13,08,38,16.30
2014,08,13,08,39,16.30
2014,08,13,08,40,16.30
2014,08,13,08,41,16.30
2014,08,13,08,42,16.30
2014,08,13,08,43,16.30
2014,08,13,08,44,16.30
2014,08,13,08,45,16.30
2014,08,13,08,46,16.30
2014,08,13,08,47,16.30
2014,08,13,08,48,16.30
2014,08,13,08,49,16.30
2014,08,13,08,50,16.30
2014,08,13,08,51,16.30
2014,08,13,08,52,16.40
2014,08,13,08,53,16.40
2014,08,13,08,54,16.40
2014,08,13,08,55,16.40
2014,08,13,08,56,16.50
2014,08,13,08,57,16.50
2014,08,13,08,58,16.50
2014,08,13,08,59,16.60
2014,08,13,09,00,16.60
2014,08,13,09,01,16.60
2014,08,13,09,02,16.60
2014,08,13,09,03,16.60
2014,08,13,09,04,16.70
2014,08,13,09,05,16.70
2014,08,13,09,06,16.70
2014,08,13,09,07,16.70
2014,08,13,09,08,16.70
2014,08,13,09,09,16.80
2014,08,13,09,10,16.80
2014,08,13,09,11,16.80
2014,08,13,09,12,16.80
2014,08,13,09,13,16.80
2014,08,13,09,14,16.90
2014,08,13,09,15,16.90
2014,08,13,09,16,16.90
2014,08,13,09,17,17.00
2014,08,13,09,18,17.00
2014,08,13,09,19,17.00
2014,08,13,09,20,17.10
2014,08,13,09,21,17.10
2014,08,13,09,22,17.10
2014,08,13,09,23,17.20
2014,08,13,09,24,17.20
2014,08,13,09,25,17.20
2014,08,13,09,26,17.30
2014,08,13,09,27,17.30
2014,08,13,09,28,17.30
2014,08,13,09,29,17.40
2014,08,13,09,30,17.40
2014,08,13,09,31,17.40
2014,08,13,09,32,17.50
2014,08,13,09,33,17.50
2014,08,13,09,34,17.50
2014,08,13,09,35,17.60
2014,08,13,09,36,17.60
2014,08,13,09,37,17.60
2014,08,13,09,38,17.70
2014,08,13,09,39,17.80
2014,08,13,09,40,17.80
2014,08,13,09,41,17.80
2014,08,13,09,42,17.90
2014,08,13,09,43,17.90
2014,08,13,09,44,17.90
2014,08,13,09,45,18.00
2014,08,13,09,46,18.00
2014,08,13,09,47,18.00
2014,08,13,09,48,18.00
2014,08,13,09,49,18.00
2014,08,13,09,50,18.10
2014,08,13,09,51,18.10
2014,08,13,09,52,18.10
2014,08,13,09,53,18.10
2014,08,13,09,54,18.10
2014,08,13,09,55,18.10
2014,08,13,09,56,18.10
2014,08,13,09,57,18.10
2014,08,13,09,58,18.10
2014,08,13,09,59,18.10
2014,08,13,10,00,18.10
2014,08,13,10,01,18.20
2014,08,13,10,02,18.20
2014,08,13,10,03,18.10
2014,08,13,10,04,18.10
2014,08,13,10,05,18.10
2014,08,13,10,06,18.10
2014,08,13,10,07,18.10
2014,08,13,10,08,18.00
2014,08,13,10,09,17.90
2014,08,13,10,10,17.90
2014,08,13,10,11,17.80
2014,08,13,10,12,17.70
2014,08,13,10,13,17.60
2014,08,13,10,14,17.50
2014,08,13,10,15,17.40
2014,08,13,10,16,17.30
2014,08,13,10,17,17.20
2014,08,13,10,18,17.20
2014,08,13,10,19,17.20
2014,08,13,10,20,17.10
2014,08,13,10,21,17.10
2014,08,13,10,22,17.10
2014,08,13,10,23,17.10
2014,08,13,10,24,17.10
2014,08,13,10,25,17.10
2014,08,13,10,26,17.10
2014,08,13,10,27,17.10
2014,08,13,10,28,17.10
2014,08,13,10,29,17.10
2014,08,13,10,30,17.10
2014,08,13,10,31,17.10
2014,08,13,10,32,17.10
2014,08,13,10,33,17.10
2014,08,13,10,34,17.10
2014,08,13,10,35,17.20
2014,08,13,10,36,17.20
2014,08,13,10,37,17.20
2014,08,13,10,38,17.20
2014,08,13,10,39,17.20
2014,08,13,10,40,17.20
2014,08,13,10,41,17.20
2014,08,13,10,42,17.20
2014,08,13,10,43,17.20
2014,08,13,10,44,17.20
2014,08,13,10,45,17.30
2014,08,13,10,46,17.30
2014,08,13,10,47,17.30
2014,08,13,10,48,17.30
2014,08,13,10,49,17.30
2014,08,13,10,50,17.30
2014,08,13,10,51,17.30
2014,08,13,10,52,17.40
2014,08,13,10,53,17.40
2014,08,13,10,54,17.40
2014,08,13,10,55,17.40
2014,08,13,10,56,17.40
2014,08,13,10,57,17.40
2014,08,13,10,58,17.50
2014,08,13,10,59,17.50
2014,08,13,11,00,17.60
2014,08,13,11,01,17.60
2014,08,13,11,02,17.60
2014,08,13,11,03,17.70
2014,08,13,11,04,17.70
2014,08,13,11,05,17.70
2014,08,13,11,06,17.70
2014,08,13,11,07,17.70
2014,08,13,11,08,17.70
2014,08,13,11,09,17.70
2014,08,13,11,10,17.70
2014,08,13,11,11,17.70
2014,08,13,11,12,17.70
2014,08,13,11,13,17.70
2014,08,13,11,14,17.70
2014,08,13,11,15,17.70
2014,08,13,11,16,17.70
2014,08,13,11,17,17.70
2014,08,13,11,18,17.70
2014,08,13,11,19,17.70
2014,08,13,11,20,17.70
2014,08,13,11,21,17.70
2014,08,13,11,22,17.70
2014,08,13,11,23,17.70
2014,08,13,11,24,17.70
2014,08,13,11,25,17.80
2014,08,13,11,26,17.90
2014,08,13,11,27,17.90
2014,08,13,11,28,17.90
2014,08,13,11,29,18.00
2014,08,13,11,30,18.00
2014,08,13,11,31,18.10
2014,08,13,11,32,18.10
2014,08,13,11,33,18.10
2014,08,13,11,34,18.10
2014,08,13,11,35,18.20
2014,08,13,11,36,18.20
2014,08,13,11,37,18.30
2014,08,13,11,38,18.30
2014,08,13,11,39,18.40
2014,08,13,11,40,18.50
2014,08,13,11,41,18.50
2014,08,13,11,42,18.60
2014,08,13,11,43,18.70
2014,08,13,11,44,18.80
2014,08,13,11,45,18.90
2014,08,13,11,46,19.00
2014,08,13,11,47,19.10
2014,08,13,11,48,19.20
2014,08,13,11,49,19.20
2014,08,13,11,50,19.30
2014,08,13,11,51,19.40
2014,08,13,11,52,19.40
2014,08,13,11,53,19.50
2014,08,13,11,54,19.60
2014,08,13,11,55,19.60
2014,08,13,11,56,19.70
2014,08,13,11,57,19.70
2014,08,13,11,58,19.70
2014,08,13,11,59,19.70
2014,08,13,12,00,19.70
2014,08,13,12,01,19.70
2014,08,13,12,02,19.80
2014,08,13,12,03,19.80
2014,08,13,12,04,19.90
2014,08,13,12,05,20.00
2014,08,13,12,06,20.10
2014,08,13,12,07,20.20
2014,08,13,12,08,20.40
2014,08,13,12,09,20.50
2014,08,13,12,10,20.60
2014,08,13,12,11,20.70
2014,08,13,12,12,20.70
2014,08,13,12,13,20.80
2014,08,13,12,14,20.80
2014,08,13,12,15,20.90
2014,08,13,12,16,20.90
2014,08,13,12,17,21.00
2014,08,13,12,18,21.00
2014,08,13,12,19,21.10
2014,08,13,12,20,21.10
2014,08,13,12,21,21.20
2014,08,13,12,22,21.20
2014,08,13,12,23,21.20
2014,08,13,12,24,21.20
2014,08,13,12,25,21.20
2014,08,13,12,26,21.30
2014,08,13,12,27,21.30
2014,08,13,12,28,21.40
2014,08,13,12,29,21.40
2014,08,13,12,30,21.40
2014,08,13,12,31,21.50
2014,08,13,12,32,21.60
2014,08,13,12,33,21.60
2014,08,13,12,34,21.70
2014,08,13,12,35,21.70
2014,08,13,12,36,21.70
2014,08,13,12,37,21.70
2014,08,13,12,38,21.70
2014,08,13,12,39,21.60
2014,08,13,12,40,21.50
2014,08,13,12,41,21.50
2014,08,13,12,42,21.60
2014,08,13,12,43,21.60
2014,08,13,12,44,21.70
2014,08,13,12,45,21.70
2014,08,13,12,46,21.70
2014,08,13,12,47,21.80
2014,08,13,12,48,21.80
2014,08,13,12,49,21.80
2014,08,13,12,50,21.80
2014,08,13,12,51,21.80
2014,08,13,12,52,21.70
2014,08,13,12,53,21.60
2014,08,13,12,54,21.50
2014,08,13,12,55,21.40
2014,08,13,12,56,21.50
2014,08,13,12,57,21.50
2014,08,13,12,58,21.60
2014,08,13,12,59,21.70
2014,08,13,13,00,21.80
2014,08,13,13,01,21.80
2014,08,13,13,02,21.70
2014,08,13,13,03,21.70
2014,08,13,13,04,21.70
2014,08,13,13,05,21.80
2014,08,13,13,06,21.80
2014,08,13,13,07,21.90
2014,08,13,13,08,21.90
2014,08,13,13,09,21.90
2014,08,13,13,10,21.90
2014,08,13,13,11,21.90
2014,08,13,13,12,22.00
2014,08,13,13,13,22.10
2014,08,13,13,14,22.10
2014,08,13,13,15,22.10
2014,08,13,13,16,22.10
2014,08,13,13,17,22.00
2014,08,13,13,18,21.90
2014,08,13,13,19,21.90
2014,08,13,13,20,22.00
2014,08,13,13,21,22.00
2014,08,13,13,22,22.10
2014,08,13,13,23,22.00
2014,08,13,13,24,22.00
2014,08,13,13,25,21.90
2014,08,13,13,26,21.90
2014,08,13,13,27,21.90
2014,08,13,13,28,21.90
2014,08,13,13,29,21.90
2014,08,13,13,30,21.90
2014,08,13,13,31,21.90
2014,08,13,13,32,21.90
2014,08,13,13,33,21.90
2014,08,13,13,34,21.90
2014,08,13,13,35,21.90
2014,08,13,13,36,22.00
2014,08,13,13,37,22.10
2014,08,13,13,38,22.10
2014,08,13,13,39,22.10
2014,08,13,13,40,22.10
2014,08,13,13,41,22.10
2014,08,13,13,42,22.10
2014,08,13,13,43,22.10
2014,08,13,13,44,22.20
2014,08,13,13,45,22.20
2014,08,13,13,46,22.20
2014,08,13,13,47,22.10
2014,08,13,13,48,22.00
2014,08,13,13,49,21.90
2014,08,13,13,50,21.90
2014,08,13,13,51,21.90
2014,08,13,13,52,21.80
2014,08,13,13,53,21.80
2014,08,13,13,54,21.80
2014,08,13,13,55,21.80
2014,08,13,13,56,21.80
2014,08,13,13,57,21.80
2014,08,13,13,58,21.80
2014,08,13,13,59,21.80
2014,08,13,14,00,21.90
2014,08,13,14,01,21.90
2014,08,13,14,02,21.90
2014,08,13,14,03,21.90
2014,08,13,14,04,21.90
2014,08,13,14,05,21.90
2014,08,13,14,06,21.80
2014,08,13,14,07,21.80
2014,08,13,14,08,21.80
2014,08,13,14,09,21.80
2014,08,13,14,10,21.90
2014,08,13,14,11,21.90
2014,08,13,14,12,21.90
2014,08,13,14,13,21.90
2014,08,13,14,14,21.90
2014,08,13,14,15,21.90
2014,08,13,14,16,21.90
2014,08,13,14,17,21.90
2014,08,13,14,18,21.90
2014,08,13,14,19,22.00
2014,08,13,14,20,21.90
2014,08,13,14,21,21.90
2014,08,13,14,22,21.80
2014,08,13,14,23,21.80
2014,08,13,14,24,21.70
2014,08,13,14,25,21.70
2014,08,13,14,26,21.70
2014,08,13,14,27,21.60
2014,08,13,14,28,21.70
2014,08,13,14,29,21.70
2014,08,13,14,30,21.70
2014,08,13,14,31,21.70
2014,08,13,14,32,21.60
2014,08,13,14,33,21.50
2014,08,13,14,34,21.50
2014,08,13,14,35,21.50
2014,08,13,14,36,21.40
2014,08,13,14,37,21.40
2014,08,13,14,38,21.40
2014,08,13,14,39,21.30
2014,08,13,14,40,21.30
2014,08,13,14,41,21.30
2014,08,13,14,42,21.30
2014,08,13,14,43,21.30
2014,08,13,14,44,21.20
2014,08,13,14,45,21.10
2014,08,13,14,46,21.10
2014,08,13,14,47,21.00
2014,08,13,14,48,20.90
2014,08,13,14,49,20.90
2014,08,13,14,50,20.90
2014,08,13,14,51,20.90
2014,08,13,14,52,21.00
2014,08,13,14,53,21.00
2014,08,13,14,54,21.10
2014,08,13,14,55,21.10
2014,08,13,14,56,21.10
2014,08,13,14,57,21.00
2014,08,13,14,58,21.00
2014,08,13,14,59,20.90
2014,08,13,15,00,20.90
2014,08,13,15,01,20.90
2014,08,13,15,02,20.90
2014,08,13,15,03,20.90
2014,08,13,15,04,20.90
2014,08,13,15,05,20.90
2014,08,13,15,06,20.80
2014,08,13,15,07,20.70
2014,08,13,15,08,20.80
2014,08,13,15,09,20.90
2014,08,13,15,10,21.00
2014,08,13,15,11,21.10
2014,08,13,15,12,21.10
2014,08,13,15,13,21.00
2014,08,13,15,14,20.90
2014,08,13,15,15,20.90
2014,08,13,15,16,20.90
2014,08,13,15,17,20.90
2014,08,13,15,18,20.90
2014,08,13,15,19,20.80
2014,08,13,15,20,20.80
2014,08,13,15,21,20.80
2014,08,13,15,22,20.70
2014,08,13,15,23,20.70
2014,08,13,15,24,20.70
2014,08,13,15,25,20.70
2014,08,13,15,26,20.60
2014,08,13,15,27,20.60
2014,08,13,15,28,20.50
2014,08,13,15,29,20.40
2014,08,13,15,30,20.40
2014,08,13,15,31,20.40
2014,08,13,15,32,20.40
2014,08,13,15,33,20.40
2014,08,13,15,34,20.40
2014,08,13,15,35,20.40
2014,08,13,15,36,20.30
2014,08,13,15,37,20.30
2014,08,13,15,38,20.30
2014,08,13,15,39,20.30
2014,08,13,15,40,20.30
2014,08,13,15,41,20.30
2014,08,13,15,42,20.30
2014,08,13,15,43,20.30
2014,08,13,15,44,20.30
2014,08,13,15,45,20.40
2014,08,13,15,46,20.50
2014,08,13,15,47,20.50
2014,08,13,15,48,20.60
2014,08,13,15,49,20.50
2014,08,13,15,50,20.50
2014,08,13,15,51,20.40
2014,08,13,15,52,20.40
2014,08,13,15,53,20.40
2014,08,13,15,54,20.40
2014,08,13,15,55,20.40
2014,08,13,15,56,20.40
2014,08,13,15,57,20.40
2014,08,13,15,58,20.40
2014,08,13,15,59,20.50
2014,08,13,16,00,20.50
2014,08,13,16,01,20.40
2014,08,13,16,02,20.40
2014,08,13,16,03,20.40
2014,08,13,16,04,20.40
2014,08,13,16,05,20.40
2014,08,13,16,06,20.40
2014,08,13,16,07,20.40
2014,08,13,16,08,20.40
2014,08,13,16,09,20.40
2014,08,13,16,10,20.40
2014,08,13,16,11,20.40
2014,08,13,16,12,20.40
2014,08,13,16,13,20.40
2014,08,13,16,14,20.40
2014,08,13,16,15,20.40
2014,08,13,16,16,20.40
2014,08,13,16,17,20.30
2014,08,13,16,18,20.30
2014,08,13,16,19,20.30
2014,08,13,16,20,20.30
2014,08,13,16,21,20.30
2014,08,13,16,22,20.40
2014,08,13,16,23,20.30
2014,08,13,16,24,20.20
2014,08,13,16,25,20.10
2014,08,13,16,26,20.10
2014,08,13,16,27,20.00
2014,08,13,16,28,20.00
2014,08,13,16,29,20.00
2014,08,13,16,30,19.90
2014,08,13,16,31,19.80
2014,08,13,16,32,19.80
2014,08,13,16,33,19.80
2014,08,13,16,34,19.80
2014,08,13,16,35,19.70
2014,08,13,16,36,19.60
2014,08,13,16,37,19.50
2014,08,13,16,38,19.60
2014,08,13,16,39,19.60
2014,08,13,16,40,19.60
2014,08,13,16,41,19.60
2014,08,13,16,42,19.50
2014,08,13,16,43,19.50
2014,08,13,16,44,19.50
2014,08,13,16,45,19.60
2014,08,13,16,46,19.60
2014,08,13,16,47,19.50
2014,08,13,16,48,19.50
2014,08,13,16,49,19.60
2014,08,13,16,50,19.60
2014,08,13,16,51,19.60
2014,08,13,16,52,19.60
2014,08,13,16,53,19.70
2014,08,13,16,54,19.70
2014,08,13,16,55,19.70
2014,08,13,16,56,19.60
2014,08,13,16,57,19.70
2014,08,13,16,58,19.70
2014,08,13,16,59,19.80
2014,08,13,17,00,19.80
2014,08,13,17,01,19.80
2014,08,13,17,02,19.70
2014,08,13,17,03,19.70
2014,08,13,17,04,19.60
2014,08,13,17,05,19.60
2014,08,13,17,06,19.60
2014,08,13,17,07,19.60
2014,08,13,17,08,19.60
2014,08,13,17,09,19.60
2014,08,13,17,10,19.60
2014,08,13,17,11,19.60
2014,08,13,17,12,19.60
2014,08,13,17,13,19.60
2014,08,13,17,14,19.60
2014,08,13,17,15,19.70
2014,08,13,17,16,19.70
2014,08,13,17,17,19.70
2014,08,13,17,18,19.70
2014,08,13,17,19,19.70